When you browse on this site, cookies collect data to enhance your experience and personalize the content and advertising you see.
Visit our Privacy Policy to learn more. By continuing to use the site, you agree to this use of cookies and data.
  • In Deutschland
  • Länderverzeichnis
  • Für 7 Tage
  • Wassertemperatur
  • Satellitenkarten
  • Wetterkarte
  • Widgets
  • user-avatar
    Anmelden

    Stündliche Wetter Myszadla

    Heute, 27 Mai, Montag

    Zeit Temperatur Niederschläge Wind Luftdruck Luftfeuchtigkeit
    00:00 +13°C° 0 mm 3 m/S 748 mmHg 84%
    01:00 +12°C° 0 mm 4 m/S 748 mmHg 86%
    02:00 +12°C° 0 mm 4 m/S 748 mmHg 88%
    03:00 +12°C° 0 mm 3 m/S 748 mmHg 90%
    04:00 +12°C° 0 mm 3 m/S 748 mmHg 92%
    05:00 +14°C° 0 mm 4 m/S 748 mmHg 86%
    06:00 +17°C° 0 mm 4 m/S 747 mmHg 81%
    07:00 +19°C° 0 mm 4 m/S 747 mmHg 76%
    08:00 +20°C° 0.1 mm 5 m/S 747 mmHg 70%
    09:00 +22°C° 0.1 mm 5 m/S 747 mmHg 65%
    10:00 +23°C° 0.1 mm 5 m/S 747 mmHg 59%
    11:00 +25°C° 0.1 mm 5 m/S 747 mmHg 57%
    12:00 +25°C° 0.1 mm 5 m/S 747 mmHg 56%
    13:00 +26°C° 0.1 mm 5 m/S 746 mmHg 54%
    14:00 +26°C° 0.3 mm 5 m/S 746 mmHg 57%
    15:00 +25°C° 0.3 mm 5 m/S 746 mmHg 59%
    16:00 +25°C° 0.3 mm 4 m/S 746 mmHg 62%
    17:00 +23°C° 0.3 mm 4 m/S 746 mmHg 69%
    18:00 +21°C° 0.3 mm 3 m/S 746 mmHg 76%
    19:00 +20°C° 0.3 mm 3 m/S 746 mmHg 83%
    20:00 +19°C° 0 mm 3 m/S 746 mmHg 84%
    21:00 +18°C° 0 mm 2 m/S 746 mmHg 86%
    22:00 +17°C° 0 mm 2 m/S 746 mmHg 87%
    23:00 +17°C° 0.4 mm 2 m/S 745 mmHg 90%

    Morgen, 28 Mai, Dienstag

    Zeit Temperatur Niederschläge Wind Luftdruck Luftfeuchtigkeit
    00:00 +17°C° 0.4 mm 2 m/S 745 mmHg 92%
    01:00 +17°C° 0.4 mm 2 m/S 745 mmHg 94%
    02:00 +17°C° 0.5 mm 3 m/S 744 mmHg 95%
    03:00 +16°C° 0.5 mm 3 m/S 744 mmHg 95%
    04:00 +16°C° 0.5 mm 3 m/S 744 mmHg 96%
    05:00 +17°C° 0.6 mm 3 m/S 743 mmHg 95%
    06:00 +17°C° 0.6 mm 3 m/S 743 mmHg 94%
    07:00 +18°C° 0.6 mm 3 m/S 743 mmHg 94%
    08:00 +19°C° 0.2 mm 3 m/S 743 mmHg 88%
    09:00 +21°C° 0.2 mm 4 m/S 743 mmHg 83%
    10:00 +22°C° 0.2 mm 4 m/S 742 mmHg 78%
    11:00 +23°C° 0.5 mm 4 m/S 742 mmHg 75%
    12:00 +23°C° 0.5 mm 5 m/S 742 mmHg 72%
    13:00 +25°C° 0.5 mm 5 m/S 742 mmHg 70%
    14:00 +23°C° 1.7 mm 4 m/S 742 mmHg 75%
    15:00 +22°C° 1.7 mm 4 m/S 742 mmHg 80%
    16:00 +20°C° 1.7 mm 3 m/S 742 mmHg 85%
    17:00 +20°C° 0.8 mm 2 m/S 743 mmHg 86%
    18:00 +20°C° 0.8 mm 1 m/S 743 mmHg 87%
    19:00 +18°C° 0.8 mm 0 m/S 743 mmHg 87%
    20:00 +18°C° 0.6 mm 2 m/S 743 mmHg 90%
    21:00 +17°C° 0.6 mm 3 m/S 744 mmHg 92%
    22:00 +15°C° 0.6 mm 4 m/S 744 mmHg 95%
    23:00 +14°C° 0 mm 4 m/S 744 mmHg 95%

    übermorgen, 29 Mai, Mittwoch

    Zeit Temperatur Niederschläge Wind Luftdruck Luftfeuchtigkeit
    00:00 +13°C° 0 mm 5 m/S 745 mmHg 95%
    01:00 +12°C° 0 mm 5 m/S 745 mmHg 95%
    02:00 +12°C° 0 mm 5 m/S 746 mmHg 95%
    03:00 +10°C° 0 mm 5 m/S 746 mmHg 94%
    04:00 +9°C° 0 mm 5 m/S 746 mmHg 93%
    05:00 +9°C° 0 mm 5 m/S 747 mmHg 91%
    06:00 +9°C° 0 mm 5 m/S 748 mmHg 89%
    07:00 +9°C° 0 mm 5 m/S 748 mmHg 88%
    08:00 +10°C° 0 mm 5 m/S 749 mmHg 85%
    09:00 +11°C° 0 mm 4 m/S 749 mmHg 82%
    10:00 +12°C° 0 mm 4 m/S 750 mmHg 79%
    11:00 +13°C° 0 mm 4 m/S 750 mmHg 75%
    12:00 +14°C° 0 mm 4 m/S 751 mmHg 72%
    13:00 +15°C° 0 mm 4 m/S 751 mmHg 68%
    14:00 +15°C° 0 mm 4 m/S 751 mmHg 68%
    15:00 +15°C° 0 mm 4 m/S 751 mmHg 68%
    16:00 +15°C° 0 mm 4 m/S 751 mmHg 68%
    17:00 +15°C° 0 mm 4 m/S 752 mmHg 71%
    18:00 +14°C° 0 mm 4 m/S 752 mmHg 73%
    19:00 +14°C° 0 mm 4 m/S 752 mmHg 76%
    20:00 +13°C° 0 mm 4 m/S 752 mmHg 75%
    21:00 +12°C° 0 mm 4 m/S 753 mmHg 75%
    22:00 +11°C° 0 mm 4 m/S 753 mmHg 75%
    23:00 +10°C° 0 mm 3 m/S 753 mmHg 76%

    30 Mai, Donnerstag

    Zeit Temperatur Niederschläge Wind Luftdruck Luftfeuchtigkeit
    00:00 +9°C° 0 mm 3 m/S 753 mmHg 77%
    01:00 +8°C° 0 mm 3 m/S 753 mmHg 79%
    02:00 +7°C° 0 mm 3 m/S 753 mmHg 79%
    03:00 +7°C° 0 mm 3 m/S 753 mmHg 79%
    04:00 +5°C° 0 mm 3 m/S 753 mmHg 80%
    05:00 +8°C° 0 mm 3 m/S 754 mmHg 77%
    06:00 +9°C° 0 mm 2 m/S 754 mmHg 74%
    07:00 +12°C° 0 mm 2 m/S 754 mmHg 71%
    08:00 +13°C° 0 mm 2 m/S 754 mmHg 71%
    09:00 +13°C° 0 mm 2 m/S 754 mmHg 72%
    10:00 +14°C° 0 mm 2 m/S 754 mmHg 72%
    11:00 +14°C° 0 mm 2 m/S 754 mmHg 73%
    12:00 +15°C° 0 mm 2 m/S 754 mmHg 73%
    13:00 +14°C° 0 mm 3 m/S 754 mmHg 73%
    14:00 +16°C° 0 mm 2 m/S 754 mmHg 70%
    15:00 +17°C° 0 mm 2 m/S 754 mmHg 66%
    16:00 +17°C° 0 mm 2 m/S 753 mmHg 63%
    17:00 +18°C° 0 mm 1 m/S 753 mmHg 67%
    18:00 +16°C° 0 mm 1 m/S 753 mmHg 70%
    19:00 +15°C° 0 mm 1 m/S 753 mmHg 74%
    20:00 +14°C° 0 mm 1 m/S 753 mmHg 75%
    21:00 +13°C° 0 mm 1 m/S 753 mmHg 76%
    22:00 +12°C° 0 mm 1 m/S 753 mmHg 77%
    23:00 +11°C° 0 mm 1 m/S 753 mmHg 78%

    31 Mai, Freitag

    Zeit Temperatur Niederschläge Wind Luftdruck Luftfeuchtigkeit
    00:00 +11°C° 0 mm 1 m/S 753 mmHg 78%
    01:00 +10°C° 0 mm 1 m/S 753 mmHg 79%
    02:00 +10°C° 0 mm 1 m/S 752 mmHg 80%
    03:00 +10°C° 0 mm 1 m/S 752 mmHg 81%
    04:00 +10°C° 0 mm 1 m/S 752 mmHg 82%
    05:00 +12°C° 0 mm 1 m/S 752 mmHg 79%
    06:00 +13°C° 0 mm 2 m/S 751 mmHg 75%
    07:00 +15°C° 0 mm 2 m/S 751 mmHg 72%
    08:00 +17°C° 0 mm 2 m/S 751 mmHg 68%
    09:00 +18°C° 0 mm 3 m/S 750 mmHg 65%
    10:00 +20°C° 0 mm 3 m/S 750 mmHg 62%
    11:00 +21°C° 0 mm 3 m/S 749 mmHg 58%
    12:00 +21°C° 0 mm 3 m/S 749 mmHg 54%
    13:00 +22°C° 0 mm 3 m/S 749 mmHg 51%
    14:00 +22°C° 0.2 mm 4 m/S 749 mmHg 56%
    15:00 +22°C° 0.2 mm 5 m/S 749 mmHg 61%
    16:00 +21°C° 0.2 mm 6 m/S 750 mmHg 66%
    17:00 +16°C° 0.3 mm 6 m/S 750 mmHg 73%
    18:00 +11°C° 0.3 mm 7 m/S 751 mmHg 80%
    19:00 +7°C° 0.3 mm 8 m/S 752 mmHg 87%
    20:00 +6°C° 0.1 mm 7 m/S 753 mmHg 84%
    21:00 +7°C° 0.1 mm 6 m/S 754 mmHg 82%
    22:00 +7°C° 0.1 mm 5 m/S 754 mmHg 80%
    23:00 +7°C° 0.1 mm 5 m/S 755 mmHg 80%

    1 Juni, Samstag

    Zeit Temperatur Niederschläge Wind Luftdruck Luftfeuchtigkeit
    00:00 +7°C° 0.1 mm 5 m/S 755 mmHg 81%
    01:00 +7°C° 0.1 mm 4 m/S 756 mmHg 82%
    02:00 +6°C° 0 mm 4 m/S 756 mmHg 81%
    03:00 +5°C° 0 mm 4 m/S 757 mmHg 81%
    04:00 +4°C° 0 mm 4 m/S 757 mmHg 80%
    05:00 +6°C° 0 mm 4 m/S 757 mmHg 76%
    06:00 +8°C° 0 mm 5 m/S 758 mmHg 71%
    07:00 +9°C° 0 mm 5 m/S 758 mmHg 66%
    08:00 +10°C° 0 mm 5 m/S 758 mmHg 61%
    09:00 +13°C° 0 mm 5 m/S 758 mmHg 56%
    10:00 +14°C° 0 mm 6 m/S 758 mmHg 51%
    11:00 +15°C° 0 mm 5 m/S 758 mmHg 51%
    12:00 +15°C° 0 mm 5 m/S 758 mmHg 50%
    13:00 +16°C° 0 mm 5 m/S 758 mmHg 49%
    14:00 +16°C° 0 mm 5 m/S 759 mmHg 51%
    15:00 +16°C° 0 mm 5 m/S 759 mmHg 52%
    16:00 +15°C° 0 mm 5 m/S 759 mmHg 53%
    17:00 +14°C° 0 mm 5 m/S 759 mmHg 59%
    18:00 +13°C° 0 mm 4 m/S 759 mmHg 64%
    19:00 +12°C° 0 mm 3 m/S 759 mmHg 69%
    20:00 +10°C° 0 mm 3 m/S 760 mmHg 72%
    21:00 +9°C° 0 mm 3 m/S 760 mmHg 74%
    22:00 +8°C° 0 mm 3 m/S 761 mmHg 77%
    23:00 +7°C° 0 mm 3 m/S 761 mmHg 79%
    Mehr zeigen